Location: Bühlhof
(48.7849°N, 8.6361°E)
Time: 01:04:30
(UTC+00:00)

IRAS Rocket - Pass Details

Date: 19 January 2026
Orbit: 846 x 875 km, 100.1° (Epoch: 18 February)

Event Time Altitude Azimuth Distance (km) Brightness Sun altitude
Rises 18:22:56 0° 165° (SSE) 3,409 7.3 -22.6°
Reaches altitude 10° 18:25:17 10° 167° (SSE) 2,481 6.5 -23.0°
Maximum altitude 18:30:48 78° 253° (WSW) 884 4.3 -23.9°
Drops below altitude 10° 18:36:24 10° 341° (NNW) 2,518 6.8 -24.9°
Sets 18:38:48 0° 343° (NNW) 3,464 7.6 -25.2°
